Location: Unspecified
(0.0000°N, 0.0000°E)
Time: 18:57:06
(UTC+00:00)

Vanguard 1 - All Passes

Search period start: 27 September 2016 00:00
Search period end: 07 October 2016 00:00
Orbit: 649 x 3835 km, 34.2° (Epoch: 25 September)

Date Brightness Start Highest point End Pass type
(mag) Time Alt. Az. Time Alt. Az. Time Alt. Az.
27 Sep - 03:54:35 10° S 03:57:04 13° SSE 03:59:17 10° SE visible
27 Sep - 06:13:12 10° WSW 06:17:34 57° NW 06:22:25 10° NE daylight
27 Sep - 13:24:45 10° NNW 13:34:58 20° NNE 13:48:23 10° ENE daylight
27 Sep - 15:44:17 10° NW 16:03:00 54° NE 16:25:29 10° ESE daylight
27 Sep - 18:07:58 10° WNW 18:30:49 73° SW 18:51:27 10° SE visible
27 Sep - 20:40:02 10° W 20:58:28 30° SW 21:12:15 10° SSE visible
28 Sep - 04:14:18 10° SSW 04:18:31 23° SSE 04:22:05 10° E visible
28 Sep - 06:34:51 10° W 06:38:42 29° NNW 06:43:05 10° NNE daylight
28 Sep - 13:45:09 10° NNW 13:57:24 26° NNE 14:13:59 10° E daylight
28 Sep - 16:05:15 10° NW 16:24:50 66° NE 16:47:55 10° ESE daylight
28 Sep - 18:30:06 10° WNW 18:52:39 60° SW 19:12:33 10° SE visible
28 Sep - 21:05:04 10° WSW 21:20:50 23° SSW 21:32:47 10° SSE visible
29 Sep - 04:34:48 10° SW 04:39:47 42° SE 04:43:57 10° ENE visible
29 Sep - 06:57:12 10° WNW 07:00:01 16° NNW 07:03:08 10° N daylight
29 Sep - 14:05:39 10° NNW 14:19:31 33° NE 14:38:40 10° E daylight
29 Sep - 16:26:23 10° NW 16:46:37 80° NE 17:09:54 10° ESE daylight
29 Sep - 18:52:44 10° WNW 19:14:37 49° SW 19:33:30 10° SE visible
29 Sep - 21:30:59 10° WSW 21:43:31 18° SSW 21:53:19 10° SSE visible
30 Sep - 02:36:44 10° S 02:39:20 12° SSE 02:41:35 10° SE visible
30 Sep - 04:55:45 10° SW 05:00:53 84° SE 05:05:16 10° NE visible
30 Sep - 12:09:54 10° N 12:14:28 12° NNE 12:19:51 10° NE daylight
30 Sep - 14:26:14 10° NNW 14:41:22 42° NE 15:02:31 10° ESE daylight
30 Sep - 16:47:45 10° NW 17:08:24 86° SW 17:31:34 10° SE daylight
30 Sep - 19:15:57 10° W 19:36:45 39° SW 19:54:22 10° SSE visible
30 Sep - 21:57:34 10° SW 22:06:33 14° SSW 22:13:51 10° S visible
01 Oct - 02:56:19 10° SSW 03:01:08 19° SSE 03:04:48 10° ESE visible
01 Oct - 05:17:08 10° WSW 05:21:53 48° NW 05:26:10 10° NE visible
01 Oct - 12:29:06 10° N 12:36:53 17° NNE 12:47:09 10° ENE daylight
01 Oct - 14:46:56 10° NW 15:03:04 54° NE 15:25:39 10° ESE daylight
01 Oct - 17:09:24 10° WNW 17:30:16 72° SW 17:52:58 10° SE daylight
01 Oct - 19:39:53 10° W 19:59:09 31° SSW 20:15:12 10° SSE visible
01 Oct - 22:24:20 10° SSW 22:29:48 12° SSW 22:34:31 10° S visible
02 Oct - 03:16:43 10° SSW 03:22:42 31° SSE 03:26:56 10° E visible
02 Oct - 05:39:04 10° W 05:42:55 24° NW 05:46:35 10° NNE daylight
02 Oct - 12:49:01 10° NNW 12:58:57 23° NE 13:13:03 10° E daylight
02 Oct - 15:07:47 10° NW 15:24:40 67° NE 15:48:13 10° ESE daylight
02 Oct - 17:31:24 10° WNW 17:52:14 59° SW 18:14:11 10° SE visible
02 Oct - 20:04:37 10° WSW 20:21:53 25° SSW 20:36:04 10° SSE visible
02 Oct - 22:50:12 10° SSW 22:53:08 11° S 22:55:47 10° S visible
03 Oct - 01:16:55 10° SSW 01:21:06 13° SSE 01:24:29 10° SE night (unlit)
03 Oct - 03:37:33 10° SW 03:44:02 53° SSE 03:48:31 10° ENE visible
03 Oct - 06:02:00 10° WNW 06:04:05 13° NNW 06:06:08 10° N daylight
03 Oct - 13:09:14 10° NNW 13:20:44 31° NE 13:37:54 10° E daylight
03 Oct - 15:28:50 10° NW 15:46:18 81° NE 16:10:20 10° SE daylight
03 Oct - 17:53:52 10° WNW 18:14:24 48° SW 18:35:18 10° SE visible
03 Oct - 20:30:07 10° WSW 20:44:58 20° SSW 20:57:04 10° SSE visible
03 Oct - 23:13:22 10° SSW 23:16:23 11° S 23:19:04 10° S visible
04 Oct - 01:36:57 10° SSW 01:43:13 19° SSE 01:47:43 10° ESE night (unlit)
04 Oct - 03:58:46 10° SW 04:05:10 84° NW 04:09:40 10° NE visible
04 Oct - 13:29:39 10° NNW 13:42:17 41° NE 14:01:53 10° ESE daylight
04 Oct - 15:50:05 10° NW 16:08:01 84° SW 16:32:07 10° SE daylight
04 Oct - 18:16:54 10° W 18:36:48 39° SSW 18:56:22 10° SSE visible
04 Oct - 20:56:06 10° SW 21:08:22 17° SSW 21:18:21 10° SSE visible
04 Oct - 23:34:32 10° SSW 23:39:24 12° S 23:43:27 10° SSE visible
05 Oct - 01:57:30 10° SSW 02:05:06 27° SSE 02:10:05 10° E night (unlit)
05 Oct - 04:20:24 10° WSW 04:26:08 44° NW 04:30:24 10° NE visible
05 Oct - 11:34:10 10° N 11:39:19 14° NE 11:45:44 10° ENE daylight
05 Oct - 13:50:13 10° NW 14:03:42 53° NE 14:25:08 10° ESE daylight
05 Oct - 16:11:38 10° WNW 16:29:54 70° SW 16:53:39 10° SE daylight
05 Oct - 18:40:35 10° W 18:59:31 32° SSW 19:17:26 10° SSE visible
05 Oct - 21:21:54 10° SW 21:31:58 15° S 21:40:11 10° SSE visible
05 Oct - 23:55:20 10° SSW 00:02:10 15° S 00:07:21 10° SE visible
06 Oct - 02:18:20 10° SW 02:26:45 41° SSE 02:31:54 10° E visible
06 Oct - 04:42:36 10° W 04:47:03 23° NW 04:50:41 10° NNE visible
06 Oct - 11:53:23 10° N 12:01:06 20° NE 12:12:01 10° E daylight
06 Oct - 14:10:58 10° NW 14:25:06 67° NE 14:47:49 10° ESE daylight
06 Oct - 16:33:32 10° WNW 16:51:59 57° SW 17:15:01 10° SE daylight
06 Oct - 19:04:59 10° WSW 19:22:35 26° SSW 19:38:38 10° SSE visible
06 Oct - 21:46:41 10° SSW 21:55:35 14° S 22:02:47 10° SSE visible
